Regional Weather Roundup
Issued by NWS

Home | Current Version | Previous Version | Text Only | Print | Product List | Glossary Off
Versions: 1 2 3 4 5 6 7 8 9 10 11 12 13 14 15 16 17 18 19 20 21 22 23 24 25 26 27 28 29 30 31 32 33 34 35 36 37 38 39 40 41 42 43 44 45 46 47 48 49 50

141
ASUS43 KMKX 262100
RWRWI

WISCONSIN REGIONAL WEATHER ROUNDUP
NATIONAL WEATHER SERVICE MILWAUKEE/SULLIVAN WI
400 PM CDT WED JUL 26 2017

NOTE: "FAIR" INDICATES FEW OR NO CLOUDS BELOW 12,000 FEET WITH NO
SIGNIFICANT WEATHER AND/OR OBSTRUCTIONS TO VISIBILITY.

WIZ001-002-006>008-014>016-023>028-262200-
NORTHWEST WISCONSIN

CITY           SKY/WX    TMP DP  RH WIND       PRES   REMARKS
SUPERIOR ARPT  NOT AVBL
ASHLAND        FAIR      82  62  50 NW9G17    29.97  HX  83
HAYWARD        FAIR      81  59  47 VRB5      29.99S HX  81
SIREN          FAIR      80  57  44 NW8       30.00S HX  81
CUMBERLAND     FAIR      79  59  50 NW9       30.00S HX  80
RICE LAKE      FAIR      80  62  54 NW8       30.00F HX  81
CHETEK         FAIR      79  66  65 NW5       29.99S HX  81
LADYSMITH      FAIR      80  64  59 NW8       30.00F HX  81
EAU CLAIRE     FAIR      76  71  85 W6        29.98S
MENOMONIE      PTSUNNY   78  70  76 NW8       29.99S HX  80
NEW RICHMOND   FAIR      80  62  55 NW6       29.99F HX  81
OSCEOLA        FAIR      82  59  46 NW7       30.02S HX  82
$$

WIZ003>005-009-010-017-018-262200-
NORTH CENTRAL WISCONSIN

CITY           SKY/WX    TMP DP  RH WIND       PRES   REMARKS
MANITOWISH WTR FAIR      81  59  48 NW15      29.97S HX  81
ARBOR VITAE    FAIR      80  61  52 NW6       29.98S HX  81
WOODRUFF       FAIR      80  61  52 NW6       29.98S HX  81
RHINELANDER    FAIR      80  65  59 W9        29.99S HX  82
EAGLE RIVER    FAIR      79  58  48 W10       29.96F HX  80
LAND O LAKES   FAIR      81  56  42 NW7       29.98S HX  81
PHILLIPS       FAIR      79  64  60 NW5       29.98F HX  80
TOMAHAWK         N/A     74  67  78 SW6       30.00F
MEDFORD        CLOUDY    72  67  83 CALM      29.99F
MERRILL        CLOUDY    76  71  84 NW3       30.00S
$$

WIZ029-030-035-036-043>047-262200-
CENTRAL WISCONSIN

CITY           SKY/WX    TMP DP  RH WIND       PRES   REMARKS
WAUSAU         CLOUDY    74  68  81 SW6       29.97F
MOSINEE        PTSUNNY   73  70  88 SW8       30.00F
MARSHFIELD     LGT RAIN  74  67  78 W5        29.99F
STEVENS POINT  LGT RAIN  74  69  85 S8        29.99F
WAUPACA        LGT RAIN  80  72  76 W9        30.00S HX  83
WAUTOMA        LGT RAIN  77  73  87 CALM      29.97F
WISC RAPIDS    LGT RAIN  75  71  87 W5        30.00F
CAMP DOUGLAS   NOT AVBL
$$

WIZ011>013-019>022-031-037>040-048>050-262200-
NORTHEAST WISCONSIN

CITY           SKY/WX    TMP DP  RH WIND       PRES   REMARKS
ANTIGO         CLOUDY    71  69  93 W8        30.00R
SHAWANO        FAIR      78  69  74 SW7       29.97S HX  80
OCONTO         CLOUDY    75  69  82 SW7       29.95S
STURGEON BAY   LGT RAIN  75  71  87 SW8       29.97R
GREEN BAY      LGT RAIN  76  73  91 SW10      29.98R
MANITOWOC      NOT AVBL
APPLETON       CLOUDY    79  66  65 W6        29.99R HX  81
CLINTONVILLE   LGT RAIN N/A N/A N/A SW7       29.98S
OSHKOSH        LGT RAIN  76  71  85 SW8       30.00R
$$

WIZ032>034-041-042-053>061-262200-
SOUTHWEST WISCONSIN

CITY           SKY/WX    TMP DP  RH WIND       PRES   REMARKS
LA CROSSE      CLOUDY    80  72  76 SE7       29.97F HX  84
SPARTA         PTSUNNY   76  68  76 W7        30.02R
VIROQUA        PTSUNNY   74  72  95 CALM      30.03R
BOSCOBEL       LGT RAIN  77  74  90 N5        29.99F FOG
PRAIRIE DU CHI PTSUNNY   78  71  79 NE5       29.97F HX  81
PLATTEVILLE    FAIR      78  76  92 CALM      30.02R HX  81
$$

WIZ056-057-062-063-064-067-068-262200-
SOUTH CENTRAL WISCONSIN

CITY           SKY/WX    TMP DP  RH WIND       PRES   REMARKS
REEDSBURG      FAIR      75  74  99 S5        29.99F
BARABOO/DELLS  FAIR      74  70  87 S7        29.99F
LONE ROCK      FAIR      78  71  79 N5        29.99F HX  80
MINERAL POINT  FAIR      79  77  94 CALM      30.01F HX  83
MADISON        CLOUDY    76  73  91 N3        30.00R
MIDDLETON      CLOUDY    78  73  84 CALM      30.02R HX  81
WATERTOWN      LGT RAIN  77  77  99 NW3       30.01R
MONROE         FAIR      79  72  78 S7        30.00F HX  82
JANESVILLE     CLOUDY    82  73  74 S6        29.99F HX  88
$$

WIZ051-052-058>065-066-070>072-262200-
SOUTHEAST WISCONSIN

CITY           SKY/WX    TMP DP  RH WIND       PRES   REMARKS
MILWAUKEE      PTSUNNY   84  71  65 SW9       30.00S HX  89
WAUKESHA       PTSUNNY   79  70  73 SW3       30.02S HX  81
MILWAUKEE/TIMM LGT RAIN  81  66  61 CALM      30.01F HX  83
RACINE         FAIR      78  70  76 S13       30.02S HX  80
KENOSHA        FAIR      83  72  69 SW5       30.01S HX  88
FOND DU LAC    LGT RAIN  76  70  82 W7        30.01R
SHEBOYGAN      PTSUNNY   74  73  97 SE3       29.99F
WEST BEND      PTSUNNY   73  72  94 CALM      30.01S
JUNEAU         RAIN      74  69  85 S3        30.03R
$$

LSZ147-162-262200-
LAKE SUPERIOR

STATION/POSITION TIME  TEMP    WIND        PRES    WAVE
                       AIR SEA DIR/SP/G            HT/PER
                 (UTC) (F)     (DEG/KT/KT) (MB)    (FT/S)
W MID LAKE BUOY  1950   59 52  250/ 10/ 12 1013.6F   1
DEVILS ISLAND    2000   72     220/ 11/ 14 1013.9F
PORT WING        1940   77     260/ 10/ 13 1014.6F
SAXON HARBOR     2030   75     320/  2/  3 1014.6R
$$

LMZ867-665-643>646-262200-
LAKE MICHIGAN

STATION/POSITION TIME  TEMP    WIND        PRES    WAVE
                       AIR SEA DIR/SP/G            HT/PER
                 (UTC) (F)     (DEG/KT/KT) (MB)    (FT/S)
CHAMBERS ISLAND  2040   72     190/  5/ 10 1013.2F
S GREEN BAY BUOY 2030   73 72  200/ 10/ 12 1014.1F
N MID LAKE BUOY  1950   67 65  210/ 16/ 19 1014.7R   4/ 6
NORTHPORT PIER   2040   71     160/  5/  9 1013.5F
KEWAUNEE LAKESHO 2030   69     180/ 13/ 16 1014.5S
SHEBOYGAN LAKESH 2000   71     200/  4/  5 1016.4R
PORT WASHINGTON  2030   71      90/  2/  3 1016.6F
ATWATER BUOY     1909   71 69  140/  6/  8 1016.4F
MILWAUKEE LAKESH 2020   71     130/ 12/ 13   N/A
S MID LAKE BUOY  1950   72 71  150/ 12/ 12 1016.8F   2/ 4
KENOSHA   LAKESH 2000   73     160/  8/  9 1015.9
$$

TC  - TEMPERATURE IN CELSIUS
VSB - VISIBILITY IN STATUTE MILES
WCI - WIND CHILL INDEX
HX  - HEAT INDEX





USA.gov is the U.S. government's official web portal to all federal, state and local government web resources and services.